Regional Weather Roundup
Issued by NWS Cleveland, OH

Home | Current Version | Previous Version | Text Only | Print | Product List | Glossary On
Versions: 1 2 3 4 5 6 7 8 9 10 11 12 13 14 15 16 17 18 19 20 21 22 23 24 25 26 27 28 29 30 31 32 33 34 35 36 37 38 39 40 41 42 43 44 45 46 47 48 49 50
000
ASUS41 KCLE 251112
RWRCLE
OHIO REGIONAL WEATHER ROUNDUP
NATIONAL WEATHER SERVICE WILMINGTON, OH
700 AM EDT THU MAY 25 2017

NOTE: "FAIR" INDICATES FEW OR NO CLOUDS BELOW 12,000 FEET WITH NO
SIGNIFICANT WEATHER AND/OR OBSTRUCTIONS TO VISIBILITY.

OHZ001>008-015>018-024>027-034-035-043-044-251200-
   NORTHWEST OHIO

CITY           SKY/WX    TMP DP  RH WIND       PRES   REMARKS
DEFIANCE       CLOUDY    59  57  93 NE8       29.41R
FINDLAY        CLOUDY    61  56  83 E6        29.39R
TOLEDO EXPRESS CLOUDY    58  58 100 NE8       29.42R
TOLEDO EXEC    CLOUDY    60  59  96 N5        29.43R
LIMA           CLOUDY    59  59 100 E3        29.39R
$$

OHZ009>014-019>023-028>033-038-089-251200-
   NORTHEAST OHIO

CITY           SKY/WX    TMP DP  RH WIND       PRES   REMARKS
CLE-HOPKINS    LGT RAIN  62  57  83 SE7       29.45F
CLE-LAKEFRONT  CLOUDY    61  56  83 SE10      29.43F
CUY CO. ARPT   CLOUDY    61  55  82 SE10G20   29.46
LORAIN-ELYRIA    N/A    N/A N/A N/A MISG      29.43S
ASHTABULA      LGT RAIN  57  56  96 SE9       29.49R
AKRON-CANTON   LGT RAIN  59  55  87 SE8       29.45F
WOOSTER        MOCLDY    58  57  97 SE7       29.44F
MANSFIELD      CLOUDY    59  57  93 SE10      29.42R
YOUNGSTOWN     LGT RAIN  56  54  93 SE10      29.50S
$$

OHZ042-051>053-060>062-070>072-077>081-251200-
  SOUTHWEST OHIO

CITY           SKY/WX    TMP DP  RH WIND       PRES   REMARKS
CINC-COVINGTON LGT RAIN  57  56  96 SW8       29.39S FOG
CINC-LUNKEN    RAIN      59  58  96 SW8       29.40S
HAMILTON       RAIN      58  21  24 VRB3      29.40R
DAYTON         CLOUDY    58  57  97 SW6       29.39R
WRIGHT-PAT AFB LGT RAIN  59  59 100 S5        29.39R
DAYTON GENERAL LGT RAIN  58  57  97 SW3       29.38R
WILMINGTON     HVY RAIN  57  57 100 S8        29.40R FOG
$$

OHZ036-037-039>041-045>050-054>059-063>069-073>076-082>088-251200-
  CENTRAL AND SOUTHEAST OHIO

CITY           SKY/WX    TMP DP  RH WIND       PRES   REMARKS
COLUMBUS       CLOUDY    59  58  96 S7        29.40R
OSU AIRPORT    CLOUDY    59  59 100 S9        29.40R
BOLTON FIELD   NOT AVBL
RICKENBACK AFB CLOUDY    58  56  96 S13       29.41R
NEWARK         CLOUDY    60  55  83 S6        29.42R
MARION         CLOUDY    60  56  86 SE8       29.41R
LANCASTER      CLOUDY    61  56  83 S8        29.41S
ZANESVILLE     CLOUDY    59  55  87 S6        29.44R
NEW PHILLY     CLOUDY    59  58  96 SE5       29.45S
$$




USA.gov is the U.S. government's official web portal to all federal, state and local government web resources and services.